METEOR 2-6 DEB, 45500

Orbit data source: Space-Track

METEOR 2-6 DEB, 45500 is space debris in LEO originally from a launch on Tue, 09 Sep 1980 UTC launched from the Plesetsk Missile And Space Complex (PKMTR). Debris objects in space refer to the collection of defunct objects orbiting the Earth. Examples of debris include non-operational satellites, rocket bodies, and fragments generated from explosions, collisions, or faulty payload assembly.

Loading next visibility...
METEOR 2-6 DEB details
Identifier
45500, 1980-073U
Orbit
LEO
Last TLE update12 hours ago
Origin
Flag of CISKVR (CIS)
ManufacturerUnknown
MissionSpacecraft
Bus & MotorUnknown
MassUnknown
Launch date (UTC)
1980-09-09 (44 years ago)
Launch vehicleUnknown
Launch site
Plesetsk Missile And Space Complex (PKMTR)
Object type
Payload
Rocket body
Debris
Shape & HBRUnknown
Radar Cross SectionSmall (<0.1 m²)

Expand to show TLE details & history

TLE from 12 hours ago
0 METEOR 2-6 DEB
1 45500U 80073U   24360.99414070  .00007465  00000-0  32720-2 0  9999
2 45500  81.2210 241.6815 0046884 183.1798 176.9089 14.22989988424622
Epoch: 2024-12-25T23:51Z
Definitive object data (Epoch: 2024-12-25T23:51:33.756Z)
Latitude-0.00007°
Longitude148.81093°
Altitude851.859 km
Speed7.409 km/s
True Right ascension16h 06m 43s
True Declination0° 00' 00"
Sunlit
Object was in daylight at TLE epoch
Visualization TLE readout
Latitude30.47004°
Longitude153.49979°
Altitude848.505 km
Speed7.416 km/s
Apparent Right ascension19h 14m 43s
Apparent Declination-3° 24' 33"
Sunlit
Object is in daylight
Visualization observer readout
Local Sidereal Time11:10:27
Azimuth71.57° E
Elevation-25.675°
Doppler factor1
Orbital elements
Apogee altitude846.129 km
Perigee altitude778.704 km
Semi-major axis7,190.553 km
Eccentricity0.0046884
Inclination81.221°
RAAN241.6815°
Arg. of periapsis183.1798°
True anomaly176.9377°
Mean anomaly176.9089°
Eccentric anomaly176.92332°
Mean motion3.55959 °/min
BSTAR0.003272
Orbital period101.14 mins
Loading maneuver chart data...
Loading historical data...
Loading historical data...
Loading historical data...
Loading historical data...
Loading historical data...
Loading historical data...
Loading historical data...

METEOR 2-6 DEB Visibility forecast

Observer location: undefined°, undefined

Span
Click to sort rows by Start time (UTC) header in descending order
Start Az.
Max El. time (UTC)
Max El. Az.
Max El.
End time (UTC)
End Az.
10 mins2024-12-26 16:50:02.640Z176.401° S2024-12-26 16:55:02.640Z120.405° SE41.822°2024-12-26 17:00:02.640Z16.855° NNE
5 mins2024-12-26 18:36:02.640Z268.435° W2024-12-26 18:38:02.640Z292.559° NW15.422°2024-12-26 18:41:02.640Z327.112° NNW
8 mins2024-12-27 03:27:02.640Z14.424° NNE2024-12-27 03:30:02.640Z62.533° ENE32.241°2024-12-27 03:35:02.640Z142.886° SSE
6 mins2024-12-27 05:10:02.640Z305.856° NW2024-12-27 05:12:02.640Z277.011° WNW20.722°2024-12-27 05:16:02.640Z224.557° SW
|